TimeCDT,TemperatureF,Dew PointF,Humidity,Sea Level PressureIn,VisibilityMPH,Wind Direction,Wind SpeedMPH,Gust SpeedMPH,PrecipitationIn,Events,Conditions,WindDirDegrees,DateUTC
12:15 AM,80.6,60.1,49,29.87,10.0,SE,11.5,19.6,N/A,,Clear,130,2013-06-23 05:15:00
12:35 AM,79.9,60.4,51,29.88,10.0,ESE,15.0,18.4,N/A,,Clear,120,2013-06-23 05:35:00
1:15 AM,79.7,59.7,50,29.87,10.0,SE,11.5,17.3,N/A,,Clear,130,2013-06-23 06:15:00
1:35 AM,79.2,59.2,50,29.87,10.0,SE,10.4,17.3,N/A,,Clear,130,2013-06-23 06:35:00
1:55 AM,78.8,59.0,51,29.86,10.0,SE,10.4,16.1,N/A,,Clear,130,2013-06-23 06:55:00
2:15 AM,78.4,59.0,51,29.86,10.0,SE,10.4,-,N/A,,Clear,130,2013-06-23 07:15:00
2:35 AM,78.1,59.2,52,29.86,10.0,SE,10.4,-,N/A,,Clear,130,2013-06-23 07:35:00
2:55 AM,77.5,59.9,54,29.86,10.0,SE,6.9,-,N/A,,Clear,130,2013-06-23 07:55:00
3:15 AM,76.8,59.9,56,29.86,10.0,ESE,4.6,-,N/A,,Clear,120,2013-06-23 08:15:00
3:35 AM,76.3,60.6,58,29.87,10.0,Calm,Calm,-,N/A,,Clear,0,2013-06-23 08:35:00
3:55 AM,76.8,60.4,57,29.88,10.0,Calm,Calm,-,N/A,,Clear,0,2013-06-23 08:55:00
4:15 AM,76.1,61.0,59,29.87,10.0,East,4.6,-,N/A,,Clear,100,2013-06-23 09:15:00
4:35 AM,75.2,60.8,61,29.86,10.0,ENE,5.8,-,N/A,,Clear,60,2013-06-23 09:35:00
4:55 AM,74.7,60.8,62,29.86,10.0,ENE,4.6,-,N/A,,Clear,70,2013-06-23 09:55:00
5:15 AM,73.9,60.8,63,29.86,10.0,East,5.8,-,N/A,,Clear,90,2013-06-23 10:15:00
5:35 AM,73.2,60.3,64,29.86,10.0,ENE,5.8,-,N/A,,Clear,60,2013-06-23 10:35:00
5:55 AM,73.4,59.4,61,29.86,7.0,ENE,6.9,-,N/A,,Clear,60,2013-06-23 10:55:00
6:15 AM,72.1,59.0,63,29.86,10.0,NE,6.9,-,N/A,,Clear,50,2013-06-23 11:15:00
6:35 AM,71.8,59.0,64,29.87,7.0,NE,5.8,-,N/A,,Clear,50,2013-06-23 11:35:00
6:55 AM,72.5,59.0,62,29.87,5.0,NE,5.8,-,N/A,,Haze,50,2013-06-23 11:55:00
7:15 AM,72.5,59.0,62,29.88,3.0,ENE,4.6,-,N/A,,Haze,60,2013-06-23 12:15:00
7:35 AM,71.8,59.2,64,29.88,7.0,NE,6.9,-,N/A,,Clear,40,2013-06-23 12:35:00
7:55 AM,73.6,59.2,61,29.89,10.0,NNE,5.8,-,N/A,,Clear,30,2013-06-23 12:55:00
8:15 AM,75.4,59.0,57,29.90,10.0,ENE,4.6,-,N/A,,Clear,60,2013-06-23 13:15:00
8:35 AM,77.2,59.2,54,29.90,10.0,East,5.8,-,N/A,,Clear,80,2013-06-23 13:35:00
9:35 AM,80.8,58.6,47,29.90,10.0,ESE,8.1,-,N/A,,Clear,110,2013-06-23 14:35:00
10:35 AM,86.2,61.2,43,29.90,10.0,SE,4.6,-,N/A,,Clear,140,2013-06-23 15:35:00
11:15 AM,89.4,60.8,38,29.90,10.0,SE,5.8,-,N/A,,Clear,130,2013-06-23 16:15:00
11:35 AM,90.9,60.6,36,29.90,10.0,South,4.6,-,N/A,,Clear,190,2013-06-23 16:35:00
12:55 PM,95.9,54.9,25,29.88,10.0,SSW,5.8,-,N/A,,Clear,200,2013-06-23 17:55:00
1:15 PM,95.9,53.8,24,29.88,10.0,NW,4.6,-,N/A,,Clear,320,2013-06-23 18:15:00
1:55 PM,98.2,48.6,18,29.86,10.0,WNW,5.8,-,N/A,,Clear,300,2013-06-23 18:55:00
4:15 PM,102.7,43.3,13,29.81,10.0,Calm,Calm,-,N/A,,Clear,0,2013-06-23 21:15:00
4:35 PM,102.2,42.8,13,29.80,10.0,Calm,Calm,-,N/A,,Clear,0,2013-06-23 21:35:00
4:55 PM,102.2,43.2,13,29.79,10.0,WSW,3.5,-,N/A,,Clear,250,2013-06-23 21:55:00
5:35 PM,102.4,44.1,14,29.78,10.0,Calm,Calm,-,N/A,,Clear,0,2013-06-23 22:35:00
5:55 PM,102.4,45.0,14,29.77,10.0,SE,4.6,-,N/A,,Clear,130,2013-06-23 22:55:00
6:35 PM,102.4,46.4,15,29.76,10.0,SE,6.9,-,N/A,,Clear,140,2013-06-23 23:35:00
7:15 PM,97.0,57.7,27,29.76,10.0,SE,19.6,35.7,N/A,,Clear,140,2013-06-24 00:15:00
7:55 PM,93.4,59.9,33,29.79,10.0,ESE,23.0,29.9,N/A,,Clear,110,2013-06-24 00:55:00
8:15 PM,92.3,59.9,34,29.79,10.0,ESE,23.0,29.9,N/A,,Clear,110,2013-06-24 01:15:00
8:55 PM,89.6,58.1,34,29.80,10.0,ESE,20.7,27.6,N/A,,Clear,120,2013-06-24 01:55:00
9:15 PM,88.2,58.3,36,29.81,10.0,ESE,17.3,25.3,N/A,,Clear,120,2013-06-24 02:15:00
9:55 PM,86.0,59.7,41,29.83,10.0,ESE,17.3,-,N/A,,Clear,110,2013-06-24 02:55:00
10:35 PM,84.4,60.4,44,29.85,10.0,ESE,16.1,-,N/A,,Clear,120,2013-06-24 03:35:00
10:55 PM,83.7,60.8,46,29.86,10.0,ESE,17.3,-,N/A,,Clear,120,2013-06-24 03:55:00
11:35 PM,82.8,59.4,45,29.88,10.0,ESE,16.1,-,N/A,,Clear,120,2013-06-24 04:35:00